[[{"header":{"parameterUnit":"m.s-1","parameterCategory":1,"la1":30.2991,"la2":30.254,"lo1":-89.0895,"lo2":-89.0444,"dy":0.0017,"dx":0.0017,"nx":28,"ny":28,"refTime":"2025-07-25T09:00:00:Z","depth":0,"parameterNumber":2,"parameterNumberName":"U-component_of_WINDS"},"data":[0,0,0,0,0,0,0,0,0,0,0,0,0,0,0,0,0,0,0,0,0,0,0,0,0,0,0,0,0,0,0,0,0,0,0,0,0,0,0,0,0,0,0,0,0,0,0,0,0,0,0,0,0,0,0,0,0,0,-1.2486,-1.2485,0,-1.2446,-1.2446,-1.2446,-1.239,-1.2389,-1.2389,-1.2388,-1.2348,-1.2347,-1.2347,0,0,0,0,0,0,0,0,0,0,0,0,0,-1.2513,-1.2513,-1.2486,-1.2485,-1.2485,-1.2446,-1.2446,-1.2445,-1.2391,-1.2389,-1.2388,-1.2387,-1.2348,-1.2347,-1.2347,0,0,0,0,0,0,0,0,0,0,0,0,0,-1.249,-1.2513,-1.2486,-1.2453,-1.2449,-1.2447,-1.2446,-1.2445,-1.2391,-1.2389,-1.2388,-1.2387,-1.2348,-1.2348,-1.2347,-1.2374,0,0,-1.2346,-1.2346,0,0,0,0,0,0,0,0,-1.2492,-1.249,-1.2458,-1.2455,-1.2451,-1.2422,-1.2441,-1.2421,-1.2391,-1.2413,-1.2388,-1.2386,-1.2373,-1.2371,-1.2367,-1.2372,-1.237,-1.2346,-1.2346,-1.2346,-1.2346,0,0,0,0,0,0,0,-1.2493,-1.2491,-1.247,-1.2458,-1.2453,-1.244,-1.2435,-1.2437,-1.2402,-1.2411,-1.2407,-1.2403,-1.2371,-1.2367,-1.2365,-1.237,-1.2346,-1.2346,-1.2346,-1.2346,-1.2395,-1.2396,0,0,0,0,0,0,-1.25,-1.2493,-1.2471,-1.2469,-1.2468,-1.2441,-1.2435,-1.2433,-1.2401,-1.2395,-1.2404,-1.2401,-1.2368,-1.2366,-1.2364,-1.2393,-1.2346,-1.2346,-1.2346,-1.2393,-1.2395,-1.2397,0,0,0,0,0,0,-1.2501,-1.2499,-1.2473,-1.248,-1.2475,-1.2442,-1.2439,-1.2433,-1.2428,-1.2396,-1.239,-1.2407,-1.2367,-1.2364,-1.2372,-1.2391,-1.2346,-1.2345,-1.2392,-1.2394,-1.2396,-1.2451,0,0,0,0,0,0,-1.2502,-1.2499,-1.2509,-1.248,-1.2475,-1.2482,-1.244,-1.2433,-1.2428,-1.2423,-1.2397,-1.2391,-1.2366,-1.2372,-1.2372,-1.239,-1.2345,-1.239,-1.2393,-1.2395,-1.2448,-1.2455,-1.2462,0,0,0,0,0,-1.2503,-1.2526,-1.251,-1.2507,-1.2486,-1.2483,-1.248,-1.245,-1.243,-1.2439,-1.2419,-1.2392,-1.2389,-1.2374,-1.2372,-1.239,-1.2388,-1.2392,-1.2395,-1.2445,-1.2454,-1.2462,0,0,0,0,0,0,-1.2558,-1.2522,-1.2503,-1.2517,-1.2504,-1.2473,-1.2484,-1.2461,-1.2453,-1.2448,-1.2412,-1.2406,-1.2419,-1.2405,-1.2389,-1.2415,-1.2385,-1.2388,-1.2423,-1.2431,-1.2438,-1.2441,-1.2345,0,0,0,0,0,-1.2571,-1.2571,-1.254,-1.2556,-1.255,-1.2519,-1.2516,-1.2494,-1.2478,-1.2472,-1.2452,-1.2438,-1.2434,-1.2432,-1.2426,-1.2446,-1.2439,-1.2457,-1.2464,-1.247,-1.2473,-1.2483,-1.2491,-1.2407,-1.2407,-1.2407,0,0,-1.26,-1.258,-1.2582,-1.2566,-1.2553,-1.2554,-1.2514,-1.2516,-1.2517,-1.2473,-1.2479,-1.2464,-1.2445,-1.2459,-1.2464,-1.2448,-1.2495,-1.2475,-1.2479,-1.2479,-1.2487,-1.2495,-1.2502,-1.241,-1.2409,-1.2409,0,0,-1.2652,-1.2637,-1.2649,-1.2636,-1.2617,-1.2596,-1.2599,-1.2572,-1.2561,-1.2566,-1.2533,-1.2533,-1.2526,-1.2515,-1.2508,-1.2557,-1.2532,-1.2556,-1.2592,-1.2602,-1.2608,-1.2614,-1.2632,-1.2638,-1.2559,-1.2559,-1.2559,0,-1.269,-1.269,-1.2658,-1.2662,-1.2656,-1.2617,-1.2628,-1.2618,-1.2598,-1.2594,-1.2577,-1.2568,-1.2553,-1.2564,-1.2576,-1.2571,-1.2574,-1.2559,-1.261,-1.2615,-1.262,-1.2636,-1.2643,-1.2562,-1.2562,-1.2562,-1.2561,0,-1.2737,-1.2738,-1.275,-1.2731,-1.2726,-1.2735,-1.2704,-1.2703,-1.2682,-1.2664,-1.267,-1.265,-1.264,-1.2641,-1.262,-1.2649,-1.264,-1.2617,-1.2586,-1.2632,-1.2646,-1.2652,-1.2567,-1.2565,-1.2565,-1.2564,0,0,-1.2823,-1.2787,-1.2792,-1.2783,-1.2758,-1.2758,-1.2765,-1.2755,-1.2755,-1.2743,-1.2747,-1.2743,-1.2722,-1.2714,-1.2692,-1.2701,-1.274,-1.2676,-1.2675,-1.2689,-1.2771,-1.2788,-1.2796,-1.2724,-1.2725,-1.2726,-1.2772,0,-1.287,-1.2879,-1.2851,-1.2867,-1.2868,-1.283,-1.2836,-1.2822,-1.2804,-1.2802,-1.2783,-1.278,-1.2752,-1.2747,-1.2754,-1.2734,-1.2756,-1.273,-1.2728,-1.2728,-1.2734,-1.2804,-1.2822,-1.2867,-1.2778,-1.2779,-1.2779,0,-1.2927,-1.2918,-1.2934,-1.2909,-1.2908,-1.2914,-1.2903,-1.2901,-1.2884,-1.2871,-1.2863,-1.2837,-1.2842,-1.2813,-1.2819,-1.2802,-1.2799,-1.2789,-1.279,-1.2789,-1.2757,-1.2804,-1.2881,-1.2887,-1.2788,-1.2787,-1.2787,0,-1.2988,-1.2979,-1.2988,-1.2982,-1.2953,-1.2958,-1.2946,-1.2928,-1.2924,-1.2914,-1.2911,-1.2902,-1.2897,-1.2891,-1.2864,-1.2845,-1.2874,-1.2842,-1.2863,-1.2864,-1.287,-1.287,-1.2948,-1.2869,-1.2869,-1.2869,-1.2868,0,-1.3044,-1.3056,-1.3015,-1.3021,-1.3033,-1.3,-1.3013,-1.2997,-1.2982,-1.2983,-1.295,-1.2953,-1.2917,-1.2915,-1.2894,-1.2902,-1.29,-1.289,-1.2884,-1.2893,-1.2894,-1.2891,-1.2887,-1.287,-1.287,-1.287,-1.2869,0,-1.3114,-1.3088,-1.3095,-1.3067,-1.306,-1.307,-1.3046,-1.305,-1.3031,-1.3034,-1.3033,-1.3002,-1.2999,-1.2971,-1.2961,-1.2947,-1.2964,-1.2952,-1.297,-1.2966,-1.2988,-1.2987,-1.3066,-1.3075,-1.2991,-1.2991,-1.2992,0,-1.3152,-1.316,-1.3133,-1.3132,-1.3122,-1.312,-1.3116,-1.3084,-1.3081,-1.3063,-1.307,-1.3064,-1.3057,-1.3053,-1.3031,-1.3023,-1.3011,-1.3039,-1.3009,-1.3018,-1.3011,-1.3011,-1.3012,-1.3045,-1.3047,-1.3047,-1.3048,0,-1.3222,-1.3208,-1.3203,-1.3194,-1.319,-1.3181,-1.317,-1.3171,-1.3136,-1.3135,-1.3131,-1.3126,-1.3116,-1.3111,-1.3099,-1.3087,-1.3062,-1.3058,-1.3062,-1.3071,-1.3081,-1.3076,-1.2987,-1.3056,-1.3055,-1.3055,-1.3054,-1.3054,-1.3277,-1.3283,-1.3264,-1.326,-1.3249,-1.3239,-1.3242,-1.3223,-1.3219,-1.3209,-1.319,-1.3189,-1.3173,-1.3155,-1.3145,-1.3143,-1.3129,-1.3135,-1.3137,-1.3139,-1.3144,-1.3082,-1.3141,-1.3141,-1.3141,-1.3141,-1.314,0,-1.3345,-1.3332,-1.3328,-1.3314,-1.3311,-1.3288,-1.3274,-1.3273,-1.3273,-1.3259,-1.3254,-1.325,-1.3244,-1.3221,-1.3213,-1.3217,-1.3205,-1.3216,-1.3215,-1.3213,-1.3157,-1.3154,-1.3225,-1.3225,-1.3225,-1.3225,-1.3225,-1.3225,-1.3381,-1.3389,-1.3373,-1.3375,-1.3362,-1.336,-1.3355,-1.3346,-1.3335,-1.3332,-1.3328,-1.3313,-1.3295,-1.3286,-1.328,-1.3273,-1.3272,-1.3287,-1.3276,-1.3225,-1.3217,-1.3209,-1.3206,-1.3287,-1.3287,-1.3332,-1.3332,-1.3333]},{"header":{"parameterUnit":"m.s-1","parameterCategory":1,"la1":30.2991,"la2":30.254,"lo1":-89.0895,"lo2":-89.0444,"dy":0.0017,"dx":0.0017,"nx":28,"ny":28,"refTime":"2025-07-25T09:00:00:Z","depth":0,"parameterNumber":3,"parameterNumberName":"V-component_of_WINDS"},"data":[0,0,0,0,0,0,0,0,0,0,0,0,0,0,0,0,0,0,0,0,0,0,0,0,0,0,0,0,0,0,0,0,0,0,0,0,0,0,0,0,0,0,0,0,0,0,0,0,0,0,0,0,0,0,0,0,0,0,3.7136,3.7136,0,3.7155,3.7155,3.7155,3.7092,3.709,3.7088,3.7087,3.7105,3.7108,3.711,0,0,0,0,0,0,0,0,0,0,0,0,0,3.7045,3.7047,3.7136,3.7136,3.7137,3.7155,3.7155,3.7155,3.7093,3.709,3.7088,3.7086,3.7105,3.7107,3.711,0,0,0,0,0,0,0,0,0,0,0,0,0,3.7076,3.7048,3.7136,3.7108,3.7105,3.7155,3.7155,3.7155,3.7093,3.709,3.7087,3.7085,3.7104,3.7107,3.711,3.7188,0,0,3.7121,3.7122,0,0,0,0,0,0,0,0,3.7074,3.708,3.7112,3.711,3.7107,3.7118,3.713,3.7166,3.7094,3.7098,3.7087,3.7083,3.7112,3.7115,3.7124,3.7189,3.719,3.7121,3.7123,3.7125,3.7126,0,0,0,0,0,0,0,3.7072,3.7078,3.7143,3.7112,3.7109,3.7093,3.7095,3.7136,3.7121,3.7097,3.7093,3.7096,3.711,3.7121,3.7124,3.719,3.7121,3.7124,3.7126,3.7127,3.7317,3.732,0,0,0,0,0,0,3.7074,3.7077,3.7143,3.7144,3.7083,3.7097,3.7099,3.7118,3.712,3.7118,3.7098,3.7093,3.7117,3.712,3.7125,3.7214,3.7125,3.7128,3.713,3.7314,3.7318,3.7321,0,0,0,0,0,0,3.7072,3.7081,3.7142,3.7109,3.7116,3.7102,3.7124,3.7119,3.713,3.7121,3.7117,3.7112,3.7115,3.712,3.7172,3.7214,3.7129,3.7132,3.7311,3.7315,3.732,3.7395,0,0,0,0,0,0,3.707,3.708,3.711,3.711,3.7118,3.719,3.7126,3.7122,3.7136,3.7129,3.7133,3.7131,3.7113,3.7168,3.7176,3.7217,3.7135,3.7307,3.7313,3.7318,3.7389,3.7401,3.7412,0,0,0,0,0,3.7067,3.7131,3.7112,3.712,3.7155,3.7193,3.7197,3.7175,3.714,3.7169,3.7163,3.7131,3.7208,3.7174,3.7182,3.7225,3.7304,3.7311,3.7318,3.7383,3.7399,3.7412,0,0,0,0,0,0,3.7137,3.7131,3.711,3.7176,3.7185,3.7182,3.7219,3.7193,3.7212,3.7205,3.7177,3.7178,3.7235,3.7235,3.7197,3.7299,3.725,3.7259,3.7297,3.7312,3.7323,3.7321,3.7138,0,0,0,0,0,3.716,3.7191,3.7184,3.7243,3.7249,3.7233,3.7249,3.7231,3.724,3.7243,3.7241,3.725,3.7276,3.7294,3.7318,3.7389,3.7387,3.7422,3.7434,3.7444,3.7451,3.7487,3.7502,3.7344,3.7343,3.7343,0,0,3.7208,3.7208,3.723,3.7257,3.7262,3.7295,3.7237,3.7274,3.7298,3.7249,3.7298,3.7296,3.7305,3.7366,3.7393,3.7368,3.7495,3.7453,3.746,3.7463,3.7495,3.751,3.7524,3.7348,3.7347,3.7347,0,0,3.7311,3.7316,3.7364,3.737,3.7379,3.7367,3.7379,3.738,3.7377,3.7425,3.7389,3.7416,3.7463,3.7469,3.7479,3.7584,3.7554,3.7592,3.7654,3.7689,3.7701,3.7712,3.7748,3.7761,3.76,3.76,3.76,0,3.737,3.7417,3.7392,3.7432,3.7444,3.7401,3.7449,3.7456,3.7472,3.7481,3.7453,3.7509,3.7512,3.7573,3.7599,3.7609,3.762,3.7591,3.7701,3.7712,3.7722,3.7755,3.7769,3.7605,3.7604,3.7604,3.7603,0,3.7488,3.7521,3.7559,3.7575,3.7592,3.7635,3.7616,3.7636,3.7617,3.7608,3.7657,3.7659,3.7682,3.7695,3.7677,3.7754,3.7738,3.7706,3.7656,3.7742,3.7773,3.7786,3.7611,3.7609,3.7608,3.7607,0,0,3.7636,3.7636,3.765,3.7656,3.7661,3.7687,3.7728,3.7749,3.7766,3.7778,3.7811,3.7851,3.7821,3.7832,3.7814,3.7845,3.7925,3.7809,3.7809,3.7829,3.8008,3.8031,3.8046,3.7906,3.7908,3.791,3.8006,0,3.7736,3.7806,3.7784,3.7855,3.7884,3.7843,3.7879,3.7885,3.7879,3.7902,3.7894,3.7922,3.7882,3.7888,3.7917,3.7909,3.796,3.7902,3.7935,3.7937,3.7933,3.8062,3.8087,3.8178,3.8019,3.8021,3.8022,0,3.7863,3.7879,3.7952,3.795,3.7962,3.7995,3.8011,3.8035,3.8041,3.8034,3.8046,3.8021,3.806,3.801,3.8063,3.8024,3.8036,3.8035,3.8038,3.8039,3.7984,3.8066,3.8206,3.8219,3.8041,3.804,3.8039,0,3.7961,3.8001,3.805,3.8056,3.8056,3.808,3.8081,3.8084,3.8098,3.8113,3.8121,3.8141,3.8152,3.8167,3.8148,3.8114,3.8203,3.8152,3.8197,3.8197,3.8217,3.8216,3.836,3.8227,3.8227,3.8227,3.8226,0,3.8075,3.8121,3.8094,3.8123,3.8173,3.8147,3.8197,3.8194,3.8197,3.8225,3.8191,3.8217,3.8191,3.8215,3.82,3.8245,3.8251,3.8245,3.824,3.8247,3.8248,3.8254,3.8247,3.823,3.8229,3.8229,3.8228,0,3.8193,3.8177,3.8227,3.8222,3.8222,3.8259,3.8254,3.8281,3.8272,3.8307,3.8314,3.8298,3.8325,3.8307,3.8334,3.8324,3.8382,3.837,3.838,3.8376,3.8421,3.8417,3.8574,3.8592,3.8449,3.845,3.8451,0,3.8266,3.83,3.8299,3.8315,3.8318,3.8344,3.8357,3.8333,3.8348,3.8357,3.8383,3.8406,3.8423,3.8467,3.8458,3.8478,3.8465,3.8518,3.8467,3.8473,3.8464,3.8461,3.8464,3.8528,3.853,3.8531,3.8532,0,3.8396,3.8386,3.8407,3.8425,3.8441,3.8454,3.8464,3.8479,3.8455,3.8474,3.85,3.8513,3.8539,3.8563,3.8579,3.8579,3.8552,3.8548,3.856,3.8567,3.8571,3.8567,3.8407,3.8545,3.8544,3.8543,3.8542,3.8541,3.8493,3.8521,3.8524,3.8547,3.8552,3.8562,3.8586,3.8579,3.86,3.8619,3.8604,3.8635,3.8639,3.8657,3.8661,3.8685,3.8663,3.8679,3.8683,3.8687,3.8693,3.8568,3.8688,3.8687,3.8687,3.8687,3.8686,0,3.862,3.862,3.8642,3.8656,3.8675,3.8647,3.8656,3.8673,3.87,3.8706,3.8724,3.8753,3.8775,3.8767,3.8787,3.8807,3.8794,3.8812,3.881,3.881,3.8712,3.87,3.8822,3.8822,3.8822,3.8822,3.8822,3.8822,3.8689,3.8733,3.8723,3.877,3.8769,3.8798,3.8805,3.8814,3.8818,3.8852,3.887,3.8865,3.8865,3.8884,3.8902,3.8899,3.8907,3.893,3.8922,3.8831,3.8817,3.8805,3.8793,3.8932,3.8932,3.9018,3.9019,3.902]}]]